Location: Boiro
(42.6475°N, 8.8834°W)
Time: 11:37:33
(UTC+01:00)

Vanguard 2 Rocket - Pass Details

Date: 13 December 2021
Orbit: 554 x 3325 km, 32.9° (Epoch: 19 January)

Event Time Altitude Azimuth Distance (km) Brightness Sun altitude
Rises 20:44:47 0° 259° (W) 3,135 10.9 -28.9°
Reaches altitude 10° 20:47:12 10° 245° (WSW) 2,432 9.9 -29.4°
Maximum altitude 20:51:51 25° 190° (S) 2,018 8.7 -30.2°
Enters shadow 20:54:27 21° 162° (SSE) 2,481 8.9 -30.7°
